Jean Charles Feron

Jean Charles Feron

Statistiques 2021

  • Courses courues : 55
  • Nb de victoires : 3
  • Nb de places : 12
  • Écart gagnant : 2
  • Réussite à la gagne : 5%
  • Réussite à la place : 22%
Musique : 7a 2a 1a Da Da 7a 4a Da 1a 8a 7a Da 2a 9a 8a 5a 2a 9a
DateRangCatégorieAlloc.Dist.HippodromeChevalRed. KmSpé.
02/03/21 7 Trot 12 000€ 2 925m Cagnes Sur Mer Fifi Imperatrice 1'16''2 Attelé
02/03/21 2 Trot 28 000€ 2 925m Cagnes Sur Mer Dragon Rouge 1'14''7 Attelé
26/02/21 1 Trot 29 000€ 2 950m Cagnes Sur Mer Dunion des Racques 1'13"9 Attelé
19/02/21 D Trot 32 000€ 2 700m Cagnes Sur Mer Diga de Cahot Attelé
19/02/21 D Trot 22 000€ 2 925m Cagnes Sur Mer Gaiac d'Avignere Attelé
19/02/21 7 Trot 53 000€ 2 925m Cagnes Sur Mer Cristal du Lupin 1'14"5 Attelé lire

Après avoir attendu au sein du peloton, n'a pu changer utilement de rythme dans la phase finale.

19/02/21 4 Trot 19 000€ 2 925m Cagnes Sur Mer Girly Sam 1'15"1 Attelé
19/02/21 D Trot 19 000€ 2 925m Cagnes Sur Mer Holeo de Bertrange Attelé
16/02/21 1 Trot 33 000€ 2 950m Cagnes Sur Mer Dunion des Racques 1'14"3 Attelé
16/02/21 8 Trot 29 000€ 2 150m Cagnes Sur Mer Honky Tonk Blues 1'15"2 Attelé
16/02/21 7 Trot 22 000€ 2 150m Cagnes Sur Mer Geisha d'Em 1'14"7 Attelé
13/02/21 D Trot 33 000€ 2 925m Cagnes Sur Mer Give Me Cash Attelé
13/02/21 2 Trot 25 000€ 2 950m Cagnes Sur Mer Festimata 1'14"4 Attelé
13/02/21 9 Trot 25 000€ 2 700m Cagnes Sur Mer Express Lady 1'15"5 Attelé
02/02/21 8 Trot 19 000€ 2 925m Cagnes Sur Mer Gaiac d'Avignere 1'14"5 Attelé
02/02/21 5 Trot 66 000€ 2 925m Cagnes Sur Mer Cristal du Lupin 1'13"7 Attelé lire

Rapidement à la pointe du combat, a plafonné progressivement pour finir.

02/02/21 2 Trot 33 000€ 2 925m Cagnes Sur Mer Ditha Djen 1'17"8 Attelé
29/01/21 9 Trot 22 000€ 2 925m Cagnes Sur Mer Fernandina 1'15"8 Attelé
29/01/21 7 Trot 25 000€ 2 925m Cagnes Sur Mer Grace de Crepin 1'16"1 Attelé
29/01/21 3 Trot 28 000€ 2 925m Cagnes Sur Mer Eusebio d'heripre 1'14"7 Attelé
29/01/21 8 Trot 22 000€ 2 925m Cagnes Sur Mer Eros des Forges 1'16"2 Attelé
27/01/21 8 Trot 33 000€ 2 925m Cagnes Sur Mer Dunion des Racques 1'14"0 Attelé lire

N'a été qu'un simple figurant au sein du peloton.

27/01/21 9 Trot 29 000€ 2 925m Cagnes Sur Mer Hussarde 1'16"2 Attelé
27/01/21 3 Trot 28 000€ 2 150m Cagnes Sur Mer Festimata 1'13"0 Attelé lire

Longtemps en retrait, a terminé de belle manière, échouant de peu pour le premier accessit.

27/01/21 4 Trot 22 000€ 2 150m Cagnes Sur Mer Houston Pajelo 1'14"4 Attelé
27/01/21 4 Trot 44 000€ 2 925m Cagnes Sur Mer Black d'Arjeanc 1'14"3 Attelé lire

Après avoir figuré, a rejoint les animateurs au bout de la ligne opposée, ne plafonnant que près du but.

25/01/21 2 Trot 22 000€ 2 675m Marseille Vivaux Dragon Rouge 1'15"7 Attelé
25/01/21 D Trot 25 000€ 2 675m Marseille Vivaux Diga de Cahot Attelé
25/01/21 5 Trot 19 000€ 2 675m Marseille Vivaux Enclos 1'17"2 Attelé
25/01/21 4 Trot 17 000€ 2 650m Marseille Vivaux Geribia des Bordes 1'17"8 Attelé
17/01/21 9 Trot 12 000€ 2 150m Cagnes Sur Mer Banco Dry 1'14"2 Attelé
17/01/21 6 Trot 19 000€ 2 925m Cagnes Sur Mer Hilton Dream 1'16"6 Attelé
17/01/21 0 Trot 22 000€ 2 925m Cagnes Sur Mer Emir d'yvel Attelé
17/01/21 6 Trot 22 000€ 2 150m Cagnes Sur Mer Geisha d'Em 1'15"8 Attelé
17/01/21 8 Trot 22 000€ 2 150m Cagnes Sur Mer Gunnar la Mesange 1'14"8 Attelé
14/01/21 9 Trot 33 000€ 2 925m Cagnes Sur Mer Dakota Winner 1'15"2 Attelé lire

N'a été qu'un simple figurant au sein du peloton.

14/01/21 4 Trot 22 000€ 2 925m Cagnes Sur Mer Fernandina 1'15"2 Attelé
14/01/21 8 Trot 29 000€ 2 700m Cagnes Sur Mer Cyclope d'Ostal 1'14"7 Attelé lire

Rapidement contraint de trotter en épaisseur, a marqué le pas dans la phase finale.

14/01/21 3 Trot 19 000€ 2 925m Cagnes Sur Mer Gaiac d'Avignere 1'14"9 Attelé
14/01/21 0 Trot 120 000€ 2 950m Cagnes Sur Mer Bad Boy du Dollar Attelé lire

N'a joué aucun rôle utile.

13/01/21 3 Trot 33 000€ 2 925m Cagnes Sur Mer Festimata 1'14"1 Attelé lire

Très vite en cinquième position, a conclu fort honorablement.

13/01/21 0 Trot 33 000€ 2 925m Cagnes Sur Mer Diga de Cahot Attelé
13/01/21 7 Trot 22 000€ 2 150m Cagnes Sur Mer Funky Town 1'13"4 Attelé
13/01/21 D Trot 25 000€ 2 925m Cagnes Sur Mer Grace de Crepin Attelé
09/01/21 0 Trot 19 000€ 2 950m Cagnes Sur Mer Geisha d'Em Attelé
09/01/21 0 Trot 19 000€ 2 925m Cagnes Sur Mer Game Player Attelé
08/01/21 5 Trot 17 000€ 2 925m Cagnes Sur Mer Heartbreaker 1'17"3 Attelé
08/01/21 D Trot 12 000€ 2 925m Cagnes Sur Mer Belle Au Vent Attelé
08/01/21 0 Trot 39 000€ 2 150m Cagnes Sur Mer Cristal du Lupin Attelé lire

Longtemps dans la dernière partie du peloton, a terminé convenablement.

08/01/21 3 Trot 33 000€ 2 950m Cagnes Sur Mer Etoilee Vrie 1'14"3 Attelé